DW6561 Weather Reports


time (UTC)temp
C
wind
direction
speed
KPH
gust
KPH
rain 1hr
cm
rain 24hr
cm
rain mn
cm
humidity
%
barometer
mb
20260831194502 26 350 0.0 3.2 0.00 0.00 0.00 36 1013.2
20260831193004 25 101 0.0 1.6 0.00 0.00 0.00 37 1013.5
20260831191505 25 318 0.0 3.2 0.00 0.00 0.00 40 1013.7
20260831190007 25 297 0.0 0.0 0.00 0.00 0.00 40 1014.0
20260831184513 24 321 0.0 0.0 0.00 0.00 0.00 44 1014.2
20260831183004 23 302 0.0 0.0 0.00 0.00 0.00 43 1014.4
20260831181511 22 306 0.0 3.2 0.00 0.00 0.00 43 1014.7
20260831180009 22 326 0.0 1.6 0.00 0.00 0.00 44 1014.8
20260831174512 21 302 0.0 1.6 0.00 0.00 0.00 46 1015.0
20260831173010 20 321 0.0 0.0 0.00 0.00 0.00 45 1015.0
20260831171505 20 298 0.0 3.2 0.00 0.00 0.00 47 1015.1
20260831170004 19 308 0.0 3.2 0.00 0.00 0.00 48 1015.3
20260831164503 18 46 0.0 1.6 0.00 0.00 0.00 50 1015.4
20260831163016 17 46 0.0 0.0 0.00 0.00 0.00 52 1015.5
20260831161519 16 46 0.0 0.0 0.00 0.00 0.00 56 1015.6
20260831160008 15 92 0.0 0.0 0.00 0.00 0.00 60 1015.7
20260831154522 14 92 0.0 0.0 0.00 0.00 0.00 63 1015.7
20260831153010 13 92 0.0 0.0 0.00 0.00 0.00 65 1015.7
20260831151504 12 96 0.0 0.0 0.00 0.00 0.00 67 1015.6
20260831150028 11 96 0.0 0.0 0.00 0.00 0.00 69 1015.6
20260831144517 11 96 0.0 0.0 0.00 0.00 0.00 69 1015.5
20260831143014 11 96 0.0 0.0 0.00 0.00 0.00 68 1015.4
20260831141517 10 96 0.0 0.0 0.00 0.00 0.00 67 1015.4
20260831140011 11 96 0.0 0.0 0.00 0.00 0.00 67 1015.2
20260831134511 11 96 0.0 0.0 0.00 0.00 0.00 69 1015.1
20260831133012 11 96 0.0 0.0 0.00 0.00 0.00 66 1015.1
20260831131518 11 96 0.0 0.0 0.00 0.00 0.00 66 1015.0
20260831130024 11 96 0.0 0.0 0.00 0.00 0.00 66 1015.0
20260831124504 11 96 0.0 0.0 0.00 0.00 0.00 64 1015.1
20260831123009 12 96 0.0 0.0 0.00 0.00 0.00 65 1015.0
20260831121526 12 96 0.0 0.0 0.00 0.00 0.00 63 1015.0
20260831120019 12 96 0.0 0.0 0.00 0.00 0.00 61 1015.0
20260831114505 12 96 0.0 0.0 0.00 0.00 0.00 59 1015.1
20260831113007 12 96 0.0 0.0 0.00 0.00 0.00 60 1014.9
20260831111503 12 96 0.0 0.0 0.00 0.00 0.00 61 1015.0
20260831110022 12 96 0.0 0.0 0.00 0.00 0.00 61 1015.1
20260831104523 12 96 0.0 0.0 0.00 0.00 0.00 61 1014.9
20260831103004 12 96 0.0 0.0 0.00 0.00 0.00 60 1015.1
20260831101515 12 96 0.0 0.0 0.00 0.00 0.00 56 1015.1
20260831100012 12 96 0.0 0.0 0.00 0.00 0.00 56 1015.3
20260831094505 12 96 0.0 0.0 0.00 0.00 0.00 53 1015.3
20260831093029 13 96 0.0 0.0 0.00 0.00 0.00 51 1015.4
20260831091511 13 96 0.0 0.0 0.00 0.00 0.00 52 1015.4
20260831090017 13 96 0.0 0.0 0.00 0.00 0.00 51 1015.4
20260831084532 13 96 0.0 0.0 0.00 0.00 0.00 49 1015.5
20260831083012 13 96 0.0 0.0 0.00 0.00 0.00 49 1015.5
20260831081519 14 96 0.0 0.0 0.00 0.00 0.00 49 1015.5
20260831080012 14 96 0.0 0.0 0.00 0.00 0.00 54 1015.5
20260831074534 15 96 0.0 0.0 0.00 0.00 0.00 54 1015.5
20260831073056 15 96 0.0 0.0 0.00 0.00 0.00 52 1015.4
20260831071522 15 96 0.0 0.0 0.00 0.00 0.00 51 1015.4
20260831070021 15 96 0.0 0.0 0.00 0.00 0.00 50 1015.5
20260831064530 15 96 0.0 0.0 0.00 0.00 0.00 48 1015.6
20260831063023 15 96 0.0 0.0 0.00 0.00 0.00 46 1015.5
20260831061537 16 96 0.0 0.0 0.00 0.00 0.00 46 1015.6
20260831060004 16 96 0.0 0.0 0.00 0.00 0.00 45 1015.6
20260831054504 16 96 0.0 0.0 0.00 0.00 0.00 45 1015.6
20260831053020 16 96 0.0 0.0 0.00 0.00 0.00 42 1015.7
20260831051508 17 96 0.0 0.0 0.00 0.00 0.00 41 1015.6
20260831050023 17 96 0.0 0.0 0.00 0.00 0.00 39 1015.6
20260831044511 18 96 0.0 0.0 0.00 0.00 0.00 39 1015.6
20260831043010 18 96 0.0 0.0 0.00 0.00 0.00 38 1015.5
20260831041505 18 96 0.0 0.0 0.00 0.00 0.00 37 1015.6
20260831040012 19 96 0.0 0.0 0.00 0.00 0.00 38 1015.6
20260831034507 19 96 0.0 0.0 0.00 0.00 0.00 38 1015.6
20260831033018 20 96 0.0 0.0 0.00 0.00 0.00 38 1015.6
20260831031515 20 96 0.0 0.0 0.00 0.00 0.00 39 1015.5
20260831030025 20 96 0.0 0.0 0.00 0.00 0.00 39 1015.5
20260831024504 21 96 0.0 0.0 0.00 0.00 0.00 39 1015.3
20260831023009 21 96 0.0 0.0 0.00 0.00 0.00 36 1015.3
20260831021518 22 96 0.0 0.0 0.00 0.00 0.00 33 1015.4
20260831020023 22 96 0.0 0.0 0.00 0.00 0.00 32 1015.3
20260831014530 23 94 0.0 0.0 0.00 0.00 0.00 33 1015.3
20260831013008 23 84 0.0 0.0 0.00 0.00 0.00 33 1015.3
20260831011512 23 84 0.0 0.0 0.00 0.00 0.00 32 1015.3
20260831010020 24 85 0.0 0.0 0.00 0.00 0.00 31 1015.4
20260831004527 24 84 0.0 1.6 0.00 0.00 0.00 31 1015.4
20260831003024 25 151 0.0 3.2 0.00 0.00 0.00 31 1015.4
20260831001510 25 151 0.0 1.6 0.00 0.00 0.00 32 1015.4
20260831000018 25 143 0.0 1.6 0.00 0.00 0.00 31 1015.5
20260830234504 25 155 0.0 3.2 0.00 0.00 0.00 30 1015.7
20260830233007 25 143 0.0 3.2 0.00 0.00 0.00 29 1015.9
20260830231512 25 184 0.0 3.2 0.00 0.00 0.00 28 1016.0
20260830230004 25 173 0.0 3.2 0.00 0.00 0.00 34 1016.1
20260830224502 25 159 0.0 8.0 0.00 0.00 0.00 30 1016.3
20260830223003 25 159 0.0 4.8 0.00 0.00 0.00 31 1016.6
20260830221503 24 177 3.2 11.3 0.00 0.00 0.00 29 1016.7
20260830220008 24 189 0.0 11.3 0.00 0.00 0.00 32 1017.0
20260830214504 23 163 3.2 9.7 0.00 0.00 0.00 32 1017.3
20260830213003 23 144 3.2 8.0 0.00 0.00 0.00 33 1017.5
20260830211507 23 160 3.2 14.5 0.00 0.00 0.00 33 1017.5
20260830210007 22 164 0.0 14.5 0.00 0.00 0.00 35 1017.6
20260830204504 22 165 4.8 16.1 0.00 0.00 0.00 35 1017.8
20260830203003 22 173 6.4 14.5 0.00 0.00 0.00 35 1018.1
20260830201503 22 206 3.2 11.3 0.00 0.00 0.00 39 1018.1
20260830200011 21 188 8.0 16.1 0.00 0.00 0.00 37 1018.1